Location: G�migny
(47.9646°N, 1.6950°E)
Time: 23:07:39
(UTC+00:00)

STARLINK-59 - Pass Details

Date: 23 October 2019
Orbit: 548 x 551 km, 53.0° (Epoch: 17 November)

Event Time Altitude Azimuth Distance (km) Brightness Sun altitude
Rises 17:12:09 0° 278° (W) 2,717 8.8 -4.3°
Reaches altitude 10° 17:14:29 10° 286° (WNW) 1,824 7.4 -4.7°
Maximum altitude 17:18:25 40° 357° (N) 814 4.4 -5.3°
Drops below altitude 10° 17:22:21 10° 68° (ENE) 1,826 5.6 -6.0°
Enters shadow 17:22:56 - 71° (ENE) 2,039 5.8 -6.1°
